Weather History for KMCF - July, 2013

Change the Weather History Date:

Wednesday, July 3, 2013

  Actual Average Record
Temperature  
Mean Temperature 80 °F -  
Max Temperature 88 °F 88 °F 94 °F (2015)
Min Temperature 74 °F 72 °F 71 °F (2002)
Cooling Degree Days 16    
Growing Degree Days 30 (Base 50)    
Moisture  
Dew Point 76 °F    
Average Humidity 96    
Maximum Humidity 100    
Minimum Humidity 71    
Precipitation  
Precipitation 0.29 in - - ()
Sea Level Pressure  
Sea Level Pressure 30.08 in    
Wind  
Wind Speed 9 mph (SE)    
Max Wind Speed 18 mph    
Max Gust Speed 26 mph    
Visibility 9 miles    
Events Rain , Thunderstorm    
Averages and records for this station are not official NWS values.
T = Trace of Precipitation, MM = Missing Value Source: NWS Daily Summary

Daily Weather History Graph

Daily Weather History Graph

Search for Another Location

Airport or City:

Trip Planner

Search our weather history database for the weather conditions in past years. The results will help you decide how hot, cold, wet, or windy it might be!

Date:

Astronomy

Jul. 03, 2013 Rise Set
Actual Time 6:38 AM EDT 8:30 PM EDT
Civil Twilight 6:11 AM EDT 8:56 PM EDT
Nautical Twilight 5:39 AM EDT 9:28 PM EDT
Astronomical Twilight 5:06 AM EDT 10:02 PM EDT
Moon 3:05 AM EDT (7/3) 4:47 PM EDT (7/3)
Length of Visible Light 14h 44m
Length of Day
13h 51m
Waning Crescent, 18% of the Moon is Illuminated
Jul 3
Waning Crescent
Jul 8
New
Jul 15
First Quarter
Jul 22
Full
Jul 29
Last Quarter

Hourly Weather History & Observations

Time (EDT) Temp. Heat Index Dew Point Humidity Pressure Visibility Wind Dir Wind Speed Gust Speed Precip Events Conditions
12:58 AM 75.2 °F - 75.2 °F 100% 30.08 in 10.0 mi ESE 10.4 mph - N/A   Clear
1:58 AM 74.5 °F - 74.5 °F 100% 30.09 in 10.0 mi East 8.1 mph - N/A   Clear
2:58 AM 74.3 °F - 74.3 °F 100% 30.07 in 10.0 mi ESE 6.9 mph - N/A   Clear
3:58 AM 74.5 °F - 74.5 °F 100% 30.07 in 10.0 mi ESE 8.1 mph - N/A   Clear
4:58 AM 74.5 °F - 74.1 °F 99% 30.07 in 10.0 mi ESE 6.9 mph - N/A   Clear
5:58 AM 74.8 °F - 74.8 °F 100% 30.07 in 10.0 mi ESE 8.1 mph - N/A   Partly Cloudy
6:58 AM 74.8 °F - 74.8 °F 100% 30.08 in 10.0 mi East 11.5 mph - N/A   Scattered Clouds
7:58 AM 75.9 °F - 75.9 °F 100% 30.10 in 10.0 mi ESE 9.2 mph - N/A   Clear
8:58 AM 77.9 °F - 77.0 °F 97% 30.11 in 10.0 mi SSW 2.3 mph - N/A   Clear
9:58 AM 79.5 °F - 77.4 °F 93% 30.11 in 10.0 mi South 1.2 mph - N/A   Clear
10:58 AM 81.7 °F 89.5 °F 77.2 °F 86% 30.11 in 10.0 mi ESE 13.8 mph - N/A   Partly Cloudy
11:58 AM 84.4 °F 95.9 °F 78.3 °F 82% 30.11 in 10.0 mi SSE 11.5 mph - N/A   Partly Cloudy
12:04 PM 84.2 °F 96.1 °F 78.8 °F 84% 30.10 in 10.0 mi East 13.8 mph 19.6 mph N/A   Partly Cloudy
12:58 PM 86.0 °F 99.8 °F 79.3 °F 80% 30.09 in 10.0 mi SE 10.4 mph - N/A   Scattered Clouds
1:58 PM 87.3 °F 98.8 °F 77.0 °F 71% 30.07 in 10.0 mi SE 15.0 mph - N/A   Mostly Cloudy
2:45 PM 87.8 °F 102.5 °F 78.8 °F 75% 30.05 in 10.0 mi SSE 9.2 mph - N/A Rain Light Rain
2:58 PM 87.8 °F 102.5 °F 79.0 °F 75% 30.06 in 10.0 mi South 15.0 mph 26.5 mph 0.00 in Thunderstorm Light Drizzle
3:28 PM 75.2 °F - 75.2 °F 100% 30.06 in 2.0 mi SSE 11.5 mph - N/A Rain , Thunderstorm Light Rain
3:33 PM 75.2 °F - 75.2 °F 100% 30.06 in 2.0 mi SE 9.2 mph - N/A Rain , Thunderstorm Light Rain
3:37 PM 75.2 °F - 75.2 °F 100% 30.06 in 4.0 mi SE 9.2 mph - N/A Rain , Thunderstorm Light Thunderstorms and Rain
3:38 PM 75.2 °F - 75.2 °F 100% 30.06 in 4.0 mi SE 9.2 mph - N/A Rain , Thunderstorm Light Rain
3:39 PM 75.2 °F - 75.2 °F 100% 30.06 in 5.0 mi SE 8.1 mph - N/A Thunderstorm Mostly Cloudy
3:40 PM 75.2 °F - 75.2 °F 100% 30.07 in 10.0 mi SE 6.9 mph - N/A Thunderstorm Thunderstorm
3:46 PM 75.2 °F - 75.2 °F 100% 30.07 in 10.0 mi SE 6.9 mph - N/A Thunderstorm Scattered Clouds
3:52 PM 75.2 °F - 75.2 °F 100% 30.08 in 10.0 mi South 12.7 mph - N/A Thunderstorm Thunderstorm
3:58 PM 75.9 °F - 75.9 °F 100% 30.09 in 10.0 mi SSW 18.4 mph - 0.20 in Thunderstorm Thunderstorm
4:03 PM 75.2 °F - 75.2 °F 100% 30.07 in 10.0 mi SSW 15.0 mph 20.7 mph N/A Thunderstorm Thunderstorm
4:07 PM 75.2 °F - 75.2 °F 100% 30.07 in 10.0 mi South 9.2 mph - N/A Thunderstorm Mostly Cloudy
4:22 PM 75.2 °F - 75.2 °F 100% 30.07 in 10.0 mi South 8.1 mph - N/A   Light Drizzle
4:27 PM 75.2 °F - 75.2 °F 100% 30.08 in 10.0 mi SSW 6.9 mph - N/A Rain Light Rain
4:37 PM 75.2 °F - 75.2 °F 100% 30.09 in 2.0 mi SSE 11.5 mph - N/A Rain Light Rain
4:40 PM 75.2 °F - 75.2 °F 100% 30.08 in 1.8 mi SSE 16.1 mph - N/A Rain , Thunderstorm Light Thunderstorms and Rain
4:45 PM 75.2 °F - 75.2 °F 100% 30.08 in 2.0 mi SSE 11.5 mph - N/A Rain , Thunderstorm Light Thunderstorms and Rain
4:50 PM 75.2 °F - 75.2 °F 100% 30.07 in 10.0 mi SSE 10.4 mph - N/A Rain , Thunderstorm Light Thunderstorms and Rain
4:55 PM 75.2 °F - 75.2 °F 100% 30.07 in 10.0 mi South 9.2 mph - N/A Rain Light Rain
4:58 PM 75.2 °F - 75.2 °F 100% 30.09 in 10.0 mi South 8.1 mph - 0.02 in Rain Light Rain
5:58 PM 75.0 °F - 75.0 °F 100% 30.08 in 10.0 mi South 6.9 mph - 0.06 in Rain Light Rain
6:27 PM 75.2 °F - 75.2 °F 100% 30.07 in 10.0 mi SSE 5.8 mph - N/A   Clear
6:58 PM 75.7 °F - 75.7 °F 100% 30.08 in 10.0 mi ESE 3.5 mph - 0.01 in   Clear
7:58 PM 75.7 °F - 75.7 °F 100% 30.09 in 10.0 mi East 8.1 mph - N/A   Partly Cloudy
8:58 PM 74.7 °F - 74.7 °F 100% 30.09 in 10.0 mi East 6.9 mph - N/A   Clear
9:58 PM 74.3 °F - 74.3 °F 100% 30.10 in 10.0 mi East 9.2 mph - N/A   Scattered Clouds
10:58 PM 74.3 °F - 74.3 °F 100% 30.13 in 10.0 mi ESE 8.1 mph - N/A   Clear
11:58 PM 74.8 °F - 74.8 °F 100% 30.14 in 10.0 mi ESE 9.2 mph - N/A   Partly Cloudy